Regional Weather Roundup
Issued by NWS New Orleans/Baton Rouge, LA

Home | Current Version | Previous Version | Text Only | Print | Product List | Glossary On
Versions: 1 2 3 4 5 6 7 8 9 10 11 12 13 14 15 16 17 18 19 20 21 22 23 24 25 26 27 28 29 30 31 32 33 34 35 36 37 38 39 40 41 42 43 44 45 46 47 48 49 50
000
ASUS44 KLIX 211510
RWRLIX
NEW ORLEANS REGIONAL WEATHER ROUNDUP
NATIONAL WEATHER SERVICE NEW ORLEANS LA
1000 AM CDT SUN SEP 21 2014

NOTE: "FAIR" INDICATES FEW OR NO CLOUDS BELOW 12,000 FEET WITH NO
      SIGNIFICANT WEATHER AND/OR OBSTRUCTIONS TO VISIBILITY.
      SKY/WX - SKY CONDITION AND SIGNIFICANT WEATHER.
      TMP - AIR TEMPERATURE.     DP    - DEWPOINT TEMPERATURE.
      RH  - RELATIVE HUMIDITY.   PRES  - PRESSURE.
      HI  - HEAT INDEX.          WCI   - WIND CHILL INDEX.

*  THESE STATIONS ARE NOT NWS OR FAA STATIONS AND ARE NOT UNDER
   NWS QUALITY CONTROL.

LAZ038-040-048-061>063-065>067-069-211600-
SOUTHEAST LOUISIANA

CITY           SKY/WX    TMP DP  RH WIND       PRES   REMARKS
N.O. AUDUBON     N/A     84  73  67 MISG        N/A
N.O. INTL ARPT MOSUNNY   82  70  66 NE12      30.03R
N.O. LAKEFRONT SUNNY     81  70  69 NE12      30.04R
N.O. DOWNTOWN*   N/A     81  66  61 NE5       30.03S
SLIDELL        SUNNY     80  68  66 NE8       30.04R
BATON ROUGE    SUNNY     80  69  69 NE7       30.05R
BOOTHVILLE     SUNNY     84  73  69 NE9       30.01S
BELLE CHASSE   MOSUNNY   82  71  69 NE9       30.02S
BOGALUSA*        N/A     80  67  64 E5        30.07S
GALLIANO*      NOT AVBL
NEW ROADS*       N/A     80  68  68 N3        30.06S
GONZALES*        N/A     80  72  76 NE3       30.04R
HAMMOND*       SUNNY     82  66  57 NE6       30.06S
HOUMA*         MOSUNNY   82  61  47 N7        30.02R
PORT FOURCHON* SUNNY     82  73  74 NE10G18   30.04R

$$

MSZ070-080>082-211600-
SOUTHERN MISSISSIPPI

CITY           SKY/WX    TMP DP  RH WIND       PRES   REMARKS
MCCOMB         SUNNY     79  66  64 CALM      30.07R
GULFPORT       SUNNY     81  68  64 NE5       30.04R
BILOXI         SUNNY     81  68  63 E7        30.04R
PASCAGOULA     SUNNY     81  69  67 E6        30.03S
STENNIS ARPT*  SUNNY     81  64  57 NE8       30.04S

$$

COASTAL OBSERVATIONS
LAKE AND NEARSHORE STATIONS

STATION/POSITION TIME  TEMP    WIND        PRES    WAVE
                       AIR SEA DIR/SP/G            HT/PER
                 (UTC) (F)     (DEG/KT/KT) (MB)    (FT/S)
PASCAGOULA       1500   82      60/ 12/ 14 1016.4
WAVELAND YACHT   1500   77      30/  6/  8 1016.6
GRAND ISLE       1500   82 81   60/  9/ 12 1016.6
SOUTHWEST PASS   1500   87 89   70/ 13/ 16 1016.0
NEW CANAL        1500   78 80   60/ 11/ 13 1017.2
SHELL BEACH      1500   78 77   20/ 14/ 15 1016.6

OFFSHORE STATIONS

STATION/POSITION TIME  TEMP    WIND        PRES    WAVE
                       AIR SEA DIR/SP/G            HT/PER
                 (UTC) (F)     (DEG/KT/KT) (MB)    (FT/S)
64 S DAUPHIN ISL 1437   82 84   90/ 17/ 19 1016.1    3/ 6

$$



USA.gov is the U.S. government's official web portal to all federal, state and local government web resources and services.